Home > Weather > Lexington > Past weeks

Flag for USA Weather for the Past 2 Weeks in Lexington, North Carolina, USA

Now
68 °F

Scattered clouds.


Feels Like: 68 °F
Forecast: 56 / 70 °F
Wind: 7 mph from Southwest

Location: Rowan County Airport

Current Time: May 4, 2016 at 5:53:33 PM

Latest Report: May 4, 2016 at 4:55 PM


Visibility: 10 mi

Pressure: 29.63 "Hg

Humidity: 42%

Dew Point: 45 °F

Location of LexingtonLocation

Historic Weather in Lexington — Graph

°F

Lexington Temperature Yesterday

Maximum temperature yesterday: 78 °F (at 3:35 PM)
Minimum temperature yesterday: 59 °F (at 8:15 PM)
Average temperature yesterday: 66 °F

High & Low Weather Summary for the Past Weeks

 TemperatureHumidityPressure
High85 °F (Apr 19, 4:35 PM)100% (Apr 21, 5:55 AM)30.23 "Hg (Apr 21, 5:55 AM)
Low44 °F (Apr 24, 6:35 AM)20% (Apr 19, 2:15 PM)29.68 "Hg (May 4, 2:15 PM)
Average67 °F73%29.98 "Hg
* Reported Apr 19 2:15 PM — May 4 2:15 PM, Lexington, Weather by CustomWeather, © 2016

Note: Actual official high and low records may vary slightly from our data, if they occured in-between our weather recording intervals... More about our weather records

Advertising

Lexington Weather History for the Previous 24 Hours

Scroll right to see more
 ConditionsComfort  
Time TempWeatherWind HumidityBarometerVisibility
2:15 PM
Wed, May 4
66 °FPartly sunny.5 mph51%29.68 "Hg10 mi
1:55 PM66 °FPartly sunny.3 mph52%29.69 "Hg10 mi
1:35 PM65 °FBroken clouds.5 mph53%29.70 "Hg10 mi
1:15 PM66 °FBroken clouds.3 mph49%29.70 "Hg10 mi
12:55 PM66 °FBroken clouds.5 mph52%29.71 "Hg10 mi
12:15 PM64 °FMostly cloudy.5 mph56%29.72 "Hg10 mi
11:55 AM66 °FBroken clouds.6 mph52%29.72 "Hg10 mi
11:15 AM64 °FScattered clouds.No wind55%29.73 "Hg10 mi
10:55 AM64 °FScattered clouds.5 mph58%29.73 "Hg10 mi
10:35 AM63 °FScattered clouds.8 mph60%29.73 "Hg10 mi
10:15 AM63 °FPartly sunny.7 mph64%29.73 "Hg10 mi
9:55 AM62 °FPartly sunny.7 mph69%29.74 "Hg10 mi
9:35 AM60 °FPartly sunny.5 mph72%29.75 "Hg10 mi
9:15 AM59 °FScattered clouds.3 mph77%29.75 "Hg10 mi
8:55 AM57 °FBroken clouds.No wind84%29.75 "Hg10 mi
8:15 AM56 °FScattered clouds.No wind93%29.75 "Hg10 mi
7:55 AM55 °FBroken clouds.3 mph99%29.75 "Hg10 mi
7:15 AM54 °FPartly cloudy.No wind100%29.74 "Hg7 mi
6:55 AM53 °FFog.No wind100%29.74 "Hg5 mi
6:35 AM53 °FFog.No wind100%29.74 "Hg5 mi
6:15 AM54 °FPartly cloudy.No wind100%29.73 "Hg10 mi
5:15 AM54 °FPassing clouds.No wind100%29.72 "Hg7 mi
4:55 AM54 °FFog.No wind100%29.73 "Hg2 mi
3:55 AM55 °FFog.No wind100%29.73 "Hg2 mi
3:35 AM55 °FFog.No wind100%29.74 "Hg1 mi
3:15 AM56 °FFog.No wind100%29.74 "Hg3 mi
2:15 AM57 °FPassing clouds.No wind100%29.74 "Hg10 mi
1:55 AM59 °FPassing clouds.No wind100%29.75 "Hg10 mi
1:15 AM58 °FPassing clouds.No wind100%29.76 "Hg10 mi
12:55 AM59 °FFog.No wind100%29.76 "Hg3 mi
12:15 AM59 °FFog.No wind100%29.76 "Hg5 mi
11:55 PM
Tue, May 3
59 °FFog.No wind100%29.77 "Hg5 mi
11:15 PM60 °FMostly cloudy.No wind100%29.78 "Hg7 mi
10:55 PM60 °FFog.No wind100%29.78 "Hg5 mi
10:35 PM60 °FMostly cloudy.No wind100%29.77 "Hg10 mi
10:15 PM60 °FOvercast.No wind100%29.78 "Hg10 mi
9:55 PM60 °FMostly cloudy.5 mph100%29.77 "Hg10 mi
9:35 PM60 °FPartly cloudy.No wind100%29.77 "Hg10 mi
9:15 PM60 °FDrizzle. Overcast.No wind100%29.76 "Hg10 mi
8:55 PM60 °FCloudy.No wind100%29.75 "Hg10 mi
8:35 PM60 °FMore clouds than sun.No wind100%29.75 "Hg10 mi
8:15 PM59 °FMore clouds than sun.3 mph100%29.75 "Hg10 mi
7:55 PM60 °FLight rain. Cloudy.6 mph96%29.75 "Hg5 mi
6:55 PM71 °FSunny.7 mph66%29.74 "Hg10 mi
6:15 PM76 °FScattered clouds.8 mph58%29.73 "Hg10 mi
5:55 PM76 °FPartly sunny.7 mph66%29.73 "Hg10 mi
5:15 PM76 °FSunny.6 mph63%29.73 "Hg10 mi
Weather by CustomWeather, © 2016

See weather overviewHow to use our weather pages